Regional Weather Roundup
Issued by NWS

Home | Current Version | Previous Version | Graphics & Text | Print | Product List | Glossary Off
Versions: 1 2 3 4 5 6 7 8 9 10 11 12 13 14 15 16 17 18 19 20 21 22 23 24 25 26 27 28 29 30 31 32 33 34 35 36 37 38 39 40 41 42 43 44 45 46 47 48 49 50

000
ASUS43 KDMX 211707
RWRIA

WEATHER ROUNDUP FOR IOWA
NATIONAL WEATHER SERVICE DES MOINES IA
1100 AM CST SUN DEC 21 2014

NOTE: "FAIR" INDICATES FEW OR NO CLOUDS BELOW 12,000 FEET WITH NO
SIGNIFICANT WEATHER AND/OR OBSTRUCTIONS TO VISIBILITY.

* - THESE STATIONS ARE NOT NWS STATIONS...THUS NOT UNDER NWS
QUALITY CONTROL.  THEY ALSO DO NOT REPORT WEATHER SUCH
AS PRECIPITATION OR FOG.

IAZ001>003-012>014-020>022-031>034-043>046-211800-
   NORTHWEST IOWA

CITY           SKY/WX    TMP DP  RH WIND       PRES   REMARKS
CARROLL *      CLOUDY    39  37  93 S22       29.84F FOG     WCI  29
CHEROKEE *     CLOUDY    37  37 100 S13G20    29.79F FOG     WCI  29
DENISON *      CLOUDY    37  37 100 S17G28    29.81F FOG     WCI  28
LE MARS *      CLOUDY    37  37 100 S18       29.76F FOG     WCI  27
ORANGE CITY *  FOG       37  36  93 S12       29.76F VSB 1   WCI  30
SHELDON *      FOG       36  36 100 S15       29.76S VSB 1/2 WCI  26
SIOUX CITY     CLOUDY    40  37  89 S12       29.78F FOG     WCI  33
SPENCER        CLOUDY    37  36  96 S15       29.79F FOG     WCI  28
STORM LAKE *   FOG       37  37 100 S20       29.79F VSB 1/2 WCI  27
$$

IAZ055>058-069>071-079>083-090>094-211800-
   SOUTHWEST IOWA

CITY           SKY/WX    TMP DP  RH WIND       PRES   REMARKS
ATLANTIC *     CLOUDY    39  37  93 S16       29.88F FOG     WCI  30
AUDUBON *      MOSUNNY   37  34  87 S18G24    29.86F FOG     WCI  27
CLARINDA *     CLOUDY    39  37  93 S14G22    29.93F WCI  31
COUNCIL BLFS * CLOUDY    39  39 100 S18G29    29.83F FOG     WCI  30
CRESTON *      CLOUDY    37  37 100 S17       29.92F FOG     WCI  28
HARLAN  *      CLOUDY    39  39 100 S18G32    29.87F FOG     WCI  30
LAMONI         CLOUDY    38  36  92 S18G26    29.95F WCI  28
RED OAK *      CLOUDY    41  39  93 S18G28    29.89F
SHENANDOAH *   CLOUDY    41  39  93 S17       29.90F FOG
$$

IAZ047>049-059>061-072>074-084-211800-
   CENTRAL IOWA

CITY           SKY/WX    TMP DP  RH WIND       PRES   REMARKS
AMES           CLOUDY    39  33  79 S17G25    29.92F WCI  30
ANKENY *       CLOUDY    39  36  87 S20G25    29.93F WCI  30
CHARITON *     CLOUDY    39  37  93 S20G26    29.96F WCI  30
DES MOINES     CLOUDY    40  34  79 S17G28    29.94F WCI  31
GRINNELL*      CLOUDY    37  36  93 S15       29.96F FOG     WCI  28
KNOXVILLE *    CLOUDY    41  36  81 S17G28    29.95F
MARSHALLTOWN   CLOUDY    38  35  89 S18G25    29.93F FOG     WCI  28
PELLA *        CLOUDY    41  36  81 S15       29.98F
PERRY *        CLOUDY    39  37  93 S20G26    29.89F FOG     WCI  30
$$

IAZ004>006-015-016-023>025-035-036-211800-
   NORTH CENTRAL IOWA

CITY           SKY/WX    TMP DP  RH WIND       PRES   REMARKS
ALGONA *       FOG       36  36 100 S23       29.83F VSB 1/4 WCI  24
CLARION *      CLOUDY    36  36 100 S20G28    29.86F FOG     WCI  25
ESTHERVILLE    FOG       35  35 100 S15       29.79F VSB 1   WCI  25
FORT DODGE *   CLOUDY    37  34  87 S16G24    29.86F WCI  28
MASON CITY     CLOUDY    36  35  96 S18G25    29.88F FOG     WCI  26
FOREST CITY *  FOG       36  34  93 S15G22    29.86F VSB 1   WCI  26
IOWA FALLS *   CLOUDY    37  34  87 S23       29.90F WCI  26
$$

IAZ007>011-017>019-026>030-037>042-050>054-066-211800-
   NORTHEAST IOWA

CITY           SKY/WX    TMP DP  RH WIND       PRES   REMARKS
CEDAR RAPIDS   CLOUDY    39  35  86 S14G22    30.01F WCI  31
CHARLES CITY * CLOUDY    37  37 100 S20       29.91F FOG     WCI  27
CLINTON *      CLOUDY    37  34  87 S12       30.11F WCI  30
DECORAH *      CLOUDY    36  36 100 S14G21    29.94F FOG     WCI  27
DUBUQUE        CLOUDY    36  34  92 S16       30.03F FOG     WCI  26
MONTICELLO *   CLOUDY    37  37 100 S15G21    30.03F FOG     WCI  28
OELWEIN *      CLOUDY    37  36  93 S17       29.97F FOG     WCI  28
WATERLOO       CLOUDY    38  35  89 S16       29.94F WCI  29
$$

IAZ064-065-067-068-078-211800-
   EAST CENTRAL IOWA

CITY           SKY/WX    TMP DP  RH WIND       PRES   REMARKS
DAVENPORT      CLOUDY    39  32  76 S14       30.08F WCI  31
IOWA CITY      CLOUDY    39  35  86 S12       30.06F WCI  32
MT. PLEASANT * CLOUDY    37  36  93 SE10G20   30.06F WCI  30
MUSCATINE *    CLOUDY    39  34  81 S15       30.07F WCI  31
QUAD CITIES    CLOUDY    39  33  79 SE10      30.09F WCI  32
$$

IAZ062-063-075>077-085>089-095>099-211800-
   SOUTHEAST IOWA

CITY           SKY/WX    TMP DP  RH WIND       PRES   REMARKS
BURLINGTON     LGT RAIN  40  35  83 S13       30.07F WCI  32
FAIRFIELD *    CLOUDY    39  36  87 S14       30.03F WCI  31
FORT MADISON * CLOUDY    39  37  93 S13       30.08F WCI  32
KEOKUK *       CLOUDY    41  36  81 S9G16     30.07F
OSKALOOSA *    CLOUDY    39  36  87 S14G20    30.01F FOG     WCI  31
CENTERVILLE *  CLOUDY    39  39 100 S10       30.00F WCI  32
OTTUMWA        CLOUDY    40  36  86 S20       30.00F WCI  30
WASHINGTON *   CLOUDY    39  39 100 S15G21    30.04F WCI  31
$$

ABBREVIATIONS USED IN REMARKS
   TC - TEMPERATURES IN CELSIUS
  WCI - WIND CHILL INDEX
   HX - HEAT INDEX
  VSB - VISIBILITY
$$




USA.gov is the U.S. government's official web portal to all federal, state and local government web resources and services.